STARLINK-5795 (56039 NORAD) Tracking and Keplerian Element Data

This shows tracking and keplerian element data for the satellite.

Feedback or suggestion? Click here.




ElementValue
Catalog56039
NameSTARLINK-5795
Epoch Orbit715
Epoch Day126.8507597
Epoch Year2023
RAAN293.444
Inclination43
Eccentricity0.0001936
Argument of Perigee276.5404
Mean Anonmoly83.5244
Mean Motion15.71888242
Decay Rate0.00131301
L11 56039U 23042BF 23126.85075970 .00131301 00000+0 96699-3 0 9999
L22 56039 43.0000 293.4440 0001936 276.5404 83.5244 15.71888242 7150



Live tracking and technical data element details for STARLINK-5795 (NORAD 56039). STARLINK-5795 can be tracked NOW for your location showing map with azimuth and elevation plus other details from your city location.







IsCatalogInMostPopularTable: catalog: 56039, numindb: 1
Update: records affected: 1



GetName: 56039 STARLINK-5795

Hit Count: updated at: Sat, 03 Jun 2023 17:46:56 GMT